UAL1630 KORD-KEWR

Flight info

Callsign UAL1630
Flight time 1h 36m
Altitude 37000
Route DUFEE ELX HAAKK DOXXY SOSIC KEEHO J584 SLT FQM3
Aircraft B752/M-SDE2E3FGHIJ3J4J7RWXY/LB1

Departure

Time 2026-04-23 21:19
Airport Chicago O'Hare International Airport (KORD)

Arrival

Time 2026-04-23 22:56
Airport Newark Liberty International Airport (KEWR)
Time Latitude Longitude Altitude Speed Heading
2026-04-23 19:11 41.97882 -87.90750 678 ft 0 kts 99°
2026-04-23 21:08 41.97884 -87.90765 678 ft 2 kts 101°
2026-04-23 21:09 41.97887 -87.90784 678 ft 2 kts 99°
2026-04-23 21:09 41.97888 -87.90797 678 ft 2 kts 99°
2026-04-23 21:09 41.97886 -87.90817 677 ft 2 kts 59°
2026-04-23 21:09 41.97876 -87.90832 678 ft 2 kts 29°
2026-04-23 21:10 41.97868 -87.90836 678 ft 1 kts 11°
2026-04-23 21:10 41.97861 -87.90837 677 ft 0 kts
2026-04-23 21:13 41.97862 -87.90837 677 ft 0 kts
2026-04-23 21:13 41.97877 -87.90833 677 ft 3 kts 12°
2026-04-23 21:13 41.97906 -87.90825 677 ft 4 kts 12°
2026-04-23 21:14 41.97940 -87.90815 677 ft 5 kts 12°
2026-04-23 21:14 41.97983 -87.90803 677 ft 7 kts 12°
2026-04-23 21:14 41.98036 -87.90788 677 ft 8 kts 11°
2026-04-23 21:14 41.98099 -87.90782 677 ft 9 kts
2026-04-23 21:15 41.98170 -87.90789 678 ft 11 kts 354°
2026-04-23 21:15 41.98251 -87.90794 677 ft 12 kts 17°
2026-04-23 21:15 41.98288 -87.90701 677 ft 12 kts 87°
2026-04-23 21:15 41.98287 -87.90582 677 ft 12 kts 90°
2026-04-23 21:16 41.98287 -87.90459 677 ft 13 kts 89°
2026-04-23 21:16 41.98287 -87.90327 677 ft 15 kts 90°
2026-04-23 21:16 41.98287 -87.90163 677 ft 18 kts 90°
2026-04-23 21:16 41.98286 -87.89983 677 ft 20 kts 88°
2026-04-23 21:17 41.98287 -87.89801 677 ft 18 kts 90°
2026-04-23 21:17 41.98287 -87.89642 677 ft 15 kts 89°
2026-04-23 21:17 41.98288 -87.89501 678 ft 13 kts 90°
2026-04-23 21:17 41.98300 -87.89430 677 ft 3 kts 31°
2026-04-23 21:18 41.98320 -87.89431 677 ft 4 kts 349°
2026-04-23 21:18 41.98364 -87.89443 677 ft 11 kts 349°
2026-04-23 21:18 41.98387 -87.89466 677 ft 0 kts 273°
2026-04-23 21:18 41.98388 -87.89489 677 ft 9 kts 272°
2026-04-23 21:19 41.98386 -87.89763 677 ft 60 kts 269°
2026-04-23 21:19 41.98389 -87.90658 678 ft 130 kts 270°
2026-04-23 21:19 41.98399 -87.92075 1050 ft 162 kts 267°
2026-04-23 21:19 41.98470 -87.93616 1867 ft 169 kts 269°
2026-04-23 21:20 41.98646 -87.95139 2512 ft 171 kts 271°
2026-04-23 21:20 41.98868 -87.96835 2726 ft 201 kts 282°
2026-04-23 21:20 41.99692 -87.98544 3033 ft 239 kts 315°
2026-04-23 21:20 42.01265 -87.99547 3475 ft 270 kts 348°
2026-04-23 21:21 42.03170 -87.99460 4278 ft 281 kts
2026-04-23 21:21 42.05183 -87.99060 4860 ft 299 kts
2026-04-23 21:21 42.07204 -87.98631 5824 ft 301 kts 11°
2026-04-23 21:21 42.09129 -87.97523 6651 ft 310 kts 36°
2026-04-23 21:22 42.10594 -87.95365 7446 ft 314 kts 64°
2026-04-23 21:22 42.11351 -87.92656 8273 ft 314 kts 81°
2026-04-23 21:22 42.11709 -87.89786 9151 ft 315 kts 86°
2026-04-23 21:22 42.12020 -87.86815 9927 ft 322 kts 86°
2026-04-23 21:23 42.12330 -87.83815 10487 ft 336 kts 86°
2026-04-23 21:23 42.12661 -87.80554 10701 ft 363 kts 86°
2026-04-23 21:23 42.13001 -87.77055 10950 ft 387 kts 86°
2026-04-23 21:23 42.13342 -87.73484 11843 ft 390 kts 86°
2026-04-23 21:24 42.13692 -87.69849 12608 ft 397 kts 86°
2026-04-23 21:24 42.14054 -87.66097 13413 ft 403 kts 85°
2026-04-23 21:24 42.14407 -87.62352 14168 ft 408 kts 88°
2026-04-23 21:24 42.14589 -87.58530 14931 ft 412 kts 91°
2026-04-23 21:25 42.14729 -87.54662 15698 ft 418 kts 90°
2026-04-23 21:25 42.14873 -87.50768 16445 ft 423 kts 90°
2026-04-23 21:25 42.15020 -87.46749 17190 ft 429 kts 90°
2026-04-23 21:25 42.15166 -87.42722 17898 ft 434 kts 90°
2026-04-23 21:26 42.15313 -87.38648 18591 ft 439 kts 90°
2026-04-23 21:26 42.15458 -87.34551 19264 ft 444 kts 91°
2026-04-23 21:26 42.15607 -87.30394 19877 ft 450 kts 91°
2026-04-23 21:26 42.15756 -87.26159 20449 ft 456 kts 91°
2026-04-23 21:27 42.15649 -87.21858 21049 ft 457 kts 101°
2026-04-23 21:27 42.15049 -87.17681 21579 ft 457 kts 111°
2026-04-23 21:27 42.13942 -87.13696 22164 ft 454 kts 122°
2026-04-23 21:27 42.12604 -87.09857 22688 ft 462 kts 118°
2026-04-23 21:28 42.11612 -87.05664 23262 ft 473 kts 108°
2026-04-23 21:28 42.11119 -87.01302 23791 ft 482 kts 97°
2026-04-23 21:28 42.11134 -86.96717 24330 ft 490 kts 87°
2026-04-23 21:28 42.11512 -86.92142 24874 ft 494 kts 86°
2026-04-23 21:29 42.11816 -86.87514 25401 ft 497 kts 88°
2026-04-23 21:29 42.12048 -86.82867 25874 ft 501 kts 89°
2026-04-23 21:29 42.12249 -86.78155 26345 ft 505 kts 89°
2026-04-23 21:29 42.12434 -86.73418 26795 ft 509 kts 89°
2026-04-23 21:30 42.12609 -86.68640 27265 ft 513 kts 89°
2026-04-23 21:30 42.12780 -86.63841 27712 ft 516 kts 89°
2026-04-23 21:30 42.12947 -86.59003 28113 ft 521 kts 89°
2026-04-23 21:30 42.13112 -86.54150 28550 ft 524 kts 89°
2026-04-23 21:31 42.13276 -86.49231 28933 ft 528 kts 89°
2026-04-23 21:31 42.13438 -86.44287 29349 ft 531 kts 89°
2026-04-23 21:31 42.13600 -86.39307 29760 ft 534 kts 89°
2026-04-23 21:31 42.13761 -86.34310 30139 ft 538 kts 89°
2026-04-23 21:32 42.13921 -86.29256 30513 ft 540 kts 89°
2026-04-23 21:32 42.14077 -86.24200 30830 ft 544 kts 89°
2026-04-23 21:32 42.14232 -86.19148 31204 ft 546 kts 89°
2026-04-23 21:32 42.14389 -86.13989 31674 ft 546 kts 89°
2026-04-23 21:33 42.14449 -86.08890 32107 ft 546 kts 92°
2026-04-23 21:33 42.14403 -86.03780 32658 ft 542 kts 92°
2026-04-23 21:33 42.14365 -85.98736 33213 ft 540 kts 92°
2026-04-23 21:33 42.14328 -85.93728 33648 ft 539 kts 92°
2026-04-23 21:34 42.14290 -85.88676 34014 ft 539 kts 92°
2026-04-23 21:34 42.14251 -85.83611 34494 ft 537 kts 92°
2026-04-23 21:34 42.14209 -85.78577 34869 ft 537 kts 92°
2026-04-23 21:34 42.14167 -85.73629 35294 ft 535 kts 92°
2026-04-23 21:35 42.14120 -85.68597 35654 ft 535 kts 92°
2026-04-23 21:35 42.14074 -85.63593 35992 ft 534 kts 92°
2026-04-23 21:35 42.14026 -85.58638 36451 ft 529 kts 92°
2026-04-23 21:35 42.13974 -85.53707 36816 ft 527 kts 92°
2026-04-23 21:36 42.13869 -85.43994 36932 ft 512 kts 92°
2026-04-23 21:36 42.13813 -85.39198 36939 ft 517 kts 92°
2026-04-23 21:37 42.13693 -85.29471 36923 ft 522 kts 92°
2026-04-23 21:37 42.13565 -85.19685 36927 ft 520 kts 92°
2026-04-23 21:38 42.13434 -85.10060 36925 ft 512 kts 93°
2026-04-23 21:38 42.13290 -85.00601 36928 ft 503 kts 94°
2026-04-23 21:39 42.13124 -84.91228 36925 ft 497 kts 94°
2026-04-23 21:39 42.12952 -84.81959 36936 ft 499 kts 94°
2026-04-23 21:40 42.12772 -84.72605 36945 ft 500 kts 94°
2026-04-23 21:40 42.12586 -84.63280 36943 ft 498 kts 94°
2026-04-23 21:41 42.12391 -84.53909 36943 ft 498 kts 94°
2026-04-23 21:41 42.12603 -84.44611 36950 ft 501 kts 83°
2026-04-23 21:42 42.13624 -84.35321 36948 ft 503 kts 82°
2026-04-23 21:42 42.14651 -84.26067 36940 ft 502 kts 83°
2026-04-23 21:43 42.15683 -84.16770 36945 ft 502 kts 83°
2026-04-23 21:43 42.16704 -84.07516 36940 ft 502 kts 83°
2026-04-23 21:44 42.17725 -83.98194 36945 ft 502 kts 83°
2026-04-23 21:44 42.18737 -83.88886 36936 ft 502 kts 83°
2026-04-23 21:45 42.19743 -83.79556 36938 ft 502 kts 83°
2026-04-23 21:45 42.20737 -83.70274 36937 ft 502 kts 83°
2026-04-23 21:46 42.21725 -83.60978 36942 ft 502 kts 83°
2026-04-23 21:46 42.22507 -83.51674 36950 ft 499 kts 92°
2026-04-23 21:47 42.21646 -83.42490 36955 ft 494 kts 106°
2026-04-23 21:47 42.20114 -83.33472 36944 ft 491 kts 108°
2026-04-23 21:48 42.18518 -83.24538 36941 ft 491 kts 108°
2026-04-23 21:48 42.16896 -83.15620 36939 ft 490 kts 108°
2026-04-23 21:49 42.15263 -83.06721 36945 ft 491 kts 108°
2026-04-23 21:49 42.13623 -82.97815 36943 ft 487 kts 109°
2026-04-23 21:50 42.12000 -82.89047 36942 ft 481 kts 109°
2026-04-23 21:50 42.10389 -82.80399 36943 ft 474 kts 110°
2026-04-23 21:51 42.08792 -82.71876 36940 ft 473 kts 110°
2026-04-23 21:51 42.07171 -82.63261 36943 ft 475 kts 110°
2026-04-23 21:52 42.05557 -82.54694 36938 ft 473 kts 110°
2026-04-23 21:52 42.03933 -82.46137 36958 ft 475 kts 110°
2026-04-23 21:53 42.02307 -82.37591 36963 ft 472 kts 110°
2026-04-23 21:53 42.00666 -82.29016 36961 ft 474 kts 110°
2026-04-23 21:54 41.99028 -82.20493 36967 ft 473 kts 111°
2026-04-23 21:54 41.97372 -82.11911 36965 ft 473 kts 111°
2026-04-23 21:55 41.95723 -82.03394 36965 ft 472 kts 110°
2026-04-23 21:55 41.94059 -81.94854 36970 ft 473 kts 111°
2026-04-23 21:56 41.92389 -81.86307 36967 ft 473 kts 110°
2026-04-23 21:56 41.91285 -81.77562 36967 ft 477 kts 102°
2026-04-23 21:57 41.90493 -81.68686 36963 ft 479 kts 102°
2026-04-23 21:57 41.89710 -81.59911 36969 ft 476 kts 102°
2026-04-23 21:58 41.88914 -81.51085 36980 ft 472 kts 102°
2026-04-23 21:58 41.88123 -81.42361 36977 ft 473 kts 102°
2026-04-23 21:59 41.87321 -81.33609 36975 ft 473 kts 103°
2026-04-23 21:59 41.86514 -81.24862 36975 ft 474 kts 103°
2026-04-23 22:00 41.85292 -81.11755 36972 ft 472 kts 103°
2026-04-23 22:00 41.84478 -81.03102 36978 ft 470 kts 103°
2026-04-23 22:01 41.83664 -80.94501 36984 ft 463 kts 104°
2026-04-23 22:01 41.82845 -80.85953 36985 ft 458 kts 104°
2026-04-23 22:02 41.82026 -80.77505 36987 ft 458 kts 104°
2026-04-23 22:02 41.81204 -80.69047 36990 ft 457 kts 104°
2026-04-23 22:03 41.80375 -80.60613 36988 ft 459 kts 105°
2026-04-23 22:03 41.79541 -80.52177 36993 ft 459 kts 104°
2026-04-23 22:04 41.78701 -80.43731 36993 ft 458 kts 104°
2026-04-23 22:04 41.77853 -80.35275 36996 ft 455 kts 104°
2026-04-23 22:05 41.77003 -80.26880 36990 ft 458 kts 105°
2026-04-23 22:05 41.76140 -80.18419 36989 ft 459 kts 105°
2026-04-23 22:06 41.75275 -80.09974 36986 ft 458 kts 105°
2026-04-23 22:06 41.74398 -80.01491 36981 ft 458 kts 105°
2026-04-23 22:07 41.73523 -79.93108 36982 ft 459 kts 105°
2026-04-23 22:07 41.72636 -79.84636 36979 ft 458 kts 105°
2026-04-23 22:08 41.71746 -79.76227 36985 ft 461 kts 105°
2026-04-23 22:08 41.70842 -79.67709 36985 ft 457 kts 105°
2026-04-23 22:09 41.69946 -79.59367 36998 ft 458 kts 105°
2026-04-23 22:09 41.69034 -79.50916 37005 ft 458 kts 105°
2026-04-23 22:10 41.68116 -79.42474 37004 ft 458 kts 105°
2026-04-23 22:10 41.67195 -79.34061 37009 ft 457 kts 106°
2026-04-23 22:11 41.66274 -79.25710 37001 ft 458 kts 106°
2026-04-23 22:11 41.65338 -79.17282 36985 ft 459 kts 106°
2026-04-23 22:12 41.64407 -79.08900 36986 ft 454 kts 108°
2026-04-23 22:12 41.63470 -79.00581 36994 ft 454 kts 109°
2026-04-23 22:13 41.62534 -78.92313 36991 ft 450 kts 110°
2026-04-23 22:13 41.61587 -78.84054 36993 ft 450 kts 110°
2026-04-23 22:14 41.60637 -78.75794 36993 ft 450 kts 110°
2026-04-23 22:14 41.59685 -78.67570 36994 ft 450 kts 110°
2026-04-23 22:15 41.58721 -78.59291 36993 ft 452 kts 110°
2026-04-23 22:15 41.57756 -78.51047 36992 ft 452 kts 110°
2026-04-23 22:16 41.56766 -78.42687 36993 ft 462 kts 110°
2026-04-23 22:16 41.55751 -78.34141 36991 ft 471 kts 110°
2026-04-23 22:17 41.54719 -78.25466 36982 ft 472 kts 110°
2026-04-23 22:17 41.53687 -78.16859 36981 ft 471 kts 110°
2026-04-23 22:18 41.52639 -78.08196 36982 ft 471 kts 110°
2026-04-23 22:18 41.51589 -77.99578 36874 ft 474 kts 110°
2026-04-23 22:19 41.51036 -77.95256 36675 ft 471 kts 112°
2026-04-23 22:19 41.50437 -77.91004 36477 ft 468 kts 112°
2026-04-23 22:19 41.49836 -77.86762 36273 ft 469 kts 112°
2026-04-23 22:19 41.49223 -77.82440 36026 ft 470 kts 112°
2026-04-23 22:20 41.48617 -77.78161 35777 ft 470 kts 112°
2026-04-23 22:20 41.48011 -77.73896 35531 ft 470 kts 112°
2026-04-23 22:20 41.47402 -77.69627 35285 ft 472 kts 112°
2026-04-23 22:20 41.46788 -77.65342 35039 ft 473 kts 112°
2026-04-23 22:21 41.46172 -77.61046 34795 ft 475 kts 111°
2026-04-23 22:21 41.45546 -77.56689 34518 ft 477 kts 111°
2026-04-23 22:21 41.44917 -77.52327 34145 ft 478 kts 111°
2026-04-23 22:21 41.44296 -77.48026 33780 ft 478 kts 111°
2026-04-23 22:22 41.43671 -77.43707 33410 ft 477 kts 111°
2026-04-23 22:22 41.43040 -77.39359 33035 ft 474 kts 111°
2026-04-23 22:22 41.42408 -77.35033 32551 ft 476 kts 111°
2026-04-23 22:22 41.41782 -77.30756 32052 ft 476 kts 111°
2026-04-23 22:23 41.41150 -77.26435 31545 ft 474 kts 111°
2026-04-23 22:23 41.40518 -77.22122 31034 ft 470 kts 111°
2026-04-23 22:23 41.39893 -77.17877 30527 ft 467 kts 111°
2026-04-23 22:23 41.39271 -77.13670 30024 ft 464 kts 111°
2026-04-23 22:24 41.38654 -77.09499 29544 ft 461 kts 111°
2026-04-23 22:24 41.38034 -77.05325 29089 ft 458 kts 111°
2026-04-23 22:24 41.37418 -77.01192 28635 ft 456 kts 111°
2026-04-23 22:24 41.36797 -76.97034 28177 ft 453 kts 110°
2026-04-23 22:25 41.36185 -76.92943 27758 ft 450 kts 110°
2026-04-23 22:25 41.35579 -76.88907 27383 ft 448 kts 110°
2026-04-23 22:25 41.34961 -76.84802 27001 ft 448 kts 110°
2026-04-23 22:25 41.34352 -76.80768 26625 ft 446 kts 110°
2026-04-23 22:26 41.33719 -76.76772 26249 ft 440 kts 114°
2026-04-23 22:26 41.32765 -76.72984 25881 ft 430 kts 120°
2026-04-23 22:26 41.31708 -76.69227 25501 ft 429 kts 118°
2026-04-23 22:26 41.30693 -76.65510 25189 ft 426 kts 118°
2026-04-23 22:27 41.29689 -76.61805 24888 ft 427 kts 118°
2026-04-23 22:27 41.28695 -76.58121 24589 ft 426 kts 118°
2026-04-23 22:27 41.27708 -76.54452 24290 ft 424 kts 118°
2026-04-23 22:27 41.26714 -76.50758 23987 ft 422 kts 118°
2026-04-23 22:28 41.25724 -76.47083 23685 ft 420 kts 117°
2026-04-23 22:28 41.24739 -76.43428 23383 ft 418 kts 117°
2026-04-23 22:28 41.23762 -76.39807 23084 ft 417 kts 117°
2026-04-23 22:28 41.22789 -76.36209 22656 ft 417 kts 117°
2026-04-23 22:29 41.21806 -76.32574 22145 ft 413 kts 118°
2026-04-23 22:29 41.20843 -76.29014 21634 ft 408 kts 117°
2026-04-23 22:29 41.19880 -76.25468 21129 ft 405 kts 117°
2026-04-23 22:29 41.18931 -76.21978 20671 ft 403 kts 117°
2026-04-23 22:30 41.17983 -76.18497 20214 ft 401 kts 117°
2026-04-23 22:30 41.17040 -76.15035 19757 ft 399 kts 117°
2026-04-23 22:30 41.16100 -76.11592 19299 ft 396 kts 117°
2026-04-23 22:30 41.15167 -76.08178 18843 ft 394 kts 117°
2026-04-23 22:31 41.14237 -76.04779 18387 ft 392 kts 116°
2026-04-23 22:31 41.13300 -76.01363 17926 ft 389 kts 116°
2026-04-23 22:31 41.12384 -75.98023 17579 ft 385 kts 116°
2026-04-23 22:31 41.11470 -75.94701 17326 ft 386 kts 116°
2026-04-23 22:32 41.10545 -75.91340 17069 ft 385 kts 116°
2026-04-23 22:32 41.09633 -75.88030 16815 ft 383 kts 116°
2026-04-23 22:32 41.08725 -75.84738 16593 ft 382 kts 116°
2026-04-23 22:32 41.07812 -75.81438 16389 ft 381 kts 116°
2026-04-23 22:33 41.06898 -75.78134 16184 ft 380 kts 116°
2026-04-23 22:33 41.05992 -75.74864 15980 ft 379 kts 115°
2026-04-23 22:33 41.05084 -75.71588 15732 ft 378 kts 115°
2026-04-23 22:33 41.04169 -75.68296 15475 ft 376 kts 115°
2026-04-23 22:34 41.03272 -75.65070 15149 ft 376 kts 115°
2026-04-23 22:34 41.02376 -75.61849 14768 ft 370 kts 115°
2026-04-23 22:34 41.01496 -75.58689 14388 ft 363 kts 115°
2026-04-23 22:34 41.00633 -75.55596 14010 ft 357 kts 115°
2026-04-23 22:35 40.99775 -75.52524 13629 ft 352 kts 115°
2026-04-23 22:35 40.98938 -75.49528 13240 ft 344 kts 115°
2026-04-23 22:35 40.98110 -75.46568 12738 ft 339 kts 115°
2026-04-23 22:35 40.97297 -75.43671 12235 ft 334 kts 114°
2026-04-23 22:36 40.96500 -75.40832 11736 ft 330 kts 114°
2026-04-23 22:36 40.95707 -75.38010 11235 ft 326 kts 114°
2026-04-23 22:36 40.94922 -75.35216 10735 ft 323 kts 114°
2026-04-23 22:36 40.94139 -75.32438 10228 ft 321 kts 114°
2026-04-23 22:37 40.93359 -75.29672 9719 ft 319 kts 114°
2026-04-23 22:37 40.92587 -75.26935 9214 ft 317 kts 113°
2026-04-23 22:37 40.91821 -75.24224 8712 ft 315 kts 113°
2026-04-23 22:37 40.91056 -75.21520 8351 ft 312 kts 112°
2026-04-23 22:38 40.90307 -75.18869 8097 ft 306 kts 112°
2026-04-23 22:38 40.89565 -75.16249 7851 ft 300 kts 112°
2026-04-23 22:38 40.88843 -75.13701 7696 ft 292 kts 112°
2026-04-23 22:38 40.88137 -75.11212 7591 ft 290 kts 112°
2026-04-23 22:39 40.87429 -75.08704 7444 ft 290 kts 112°
2026-04-23 22:39 40.86723 -75.06201 7299 ft 297 kts 112°
2026-04-23 22:39 40.85992 -75.03615 7152 ft 300 kts 112°
2026-04-23 22:39 40.85261 -75.01025 7026 ft 298 kts 112°
2026-04-23 22:40 40.84531 -74.98445 7015 ft 299 kts 112°
2026-04-23 22:40 40.83805 -74.95880 7011 ft 299 kts 112°
2026-04-23 22:40 40.82374 -74.90742 7002 ft 299 kts 111°
2026-04-23 22:41 40.81681 -74.88158 6998 ft 299 kts 111°
2026-04-23 22:41 40.80983 -74.85560 6995 ft 299 kts 111°
2026-04-23 22:41 40.80293 -74.82986 6987 ft 289 kts 111°
2026-04-23 22:41 40.79636 -74.80533 6991 ft 287 kts 112°
2026-04-23 22:42 40.78968 -74.78046 6992 ft 288 kts 111°
2026-04-23 22:42 40.78293 -74.75531 6992 ft 288 kts 111°
2026-04-23 22:42 40.77624 -74.73033 6992 ft 288 kts 111°
2026-04-23 22:42 40.76960 -74.70557 6957 ft 289 kts 112°
2026-04-23 22:43 40.76026 -74.68248 6771 ft 279 kts 135°
2026-04-23 22:43 40.74551 -74.66759 6646 ft 263 kts 156°
2026-04-23 22:43 40.72950 -74.65672 6475 ft 257 kts 157°
2026-04-23 22:43 40.71359 -74.64603 6224 ft 255 kts 157°
2026-04-23 22:44 40.69790 -74.63552 5975 ft 253 kts 157°
2026-04-23 22:44 40.68218 -74.62505 5774 ft 249 kts 157°
2026-04-23 22:44 40.66690 -74.61490 5535 ft 247 kts 157°
2026-04-23 22:44 40.65154 -74.60476 5284 ft 245 kts 157°
2026-04-23 22:45 40.63625 -74.59472 5041 ft 243 kts 157°
2026-04-23 22:45 40.62152 -74.58508 4987 ft 237 kts 157°
2026-04-23 22:45 40.60658 -74.57533 4996 ft 240 kts 157°
2026-04-23 22:45 40.59150 -74.56551 4994 ft 240 kts 157°
2026-04-23 22:46 40.57658 -74.55580 4995 ft 241 kts 157°
2026-04-23 22:46 40.56157 -74.54604 4995 ft 241 kts 157°
2026-04-23 22:46 40.54661 -74.53631 4996 ft 241 kts 157°
2026-04-23 22:46 40.53136 -74.52639 4996 ft 241 kts 157°
2026-04-23 22:47 40.51679 -74.51689 4988 ft 231 kts 157°
2026-04-23 22:47 40.50236 -74.50748 4998 ft 231 kts 157°
2026-04-23 22:47 40.48792 -74.49799 4996 ft 231 kts 153°
2026-04-23 22:47 40.47601 -74.48388 4854 ft 237 kts 124°
2026-04-23 22:48 40.46817 -74.46478 4594 ft 235 kts 116°
2026-04-23 22:48 40.46076 -74.44571 4319 ft 233 kts 117°
2026-04-23 22:48 40.45334 -74.42698 4076 ft 229 kts 117°
2026-04-23 22:48 40.44603 -74.40870 3875 ft 224 kts 117°
2026-04-23 22:49 40.43897 -74.39073 3666 ft 219 kts 110°
2026-04-23 22:49 40.43719 -74.37188 3479 ft 206 kts 74°
2026-04-23 22:49 40.44269 -74.35498 3261 ft 198 kts 55°
2026-04-23 22:49 40.44916 -74.33923 3147 ft 195 kts 57°
2026-04-23 22:50 40.45782 -74.32649 3056 ft 187 kts 26°
2026-04-23 22:50 40.46917 -74.31837 3019 ft 186 kts 25°
2026-04-23 22:50 40.48019 -74.30931 2997 ft 186 kts 29°
2026-04-23 22:50 40.49081 -74.29977 3000 ft 186 kts 30°
2026-04-23 22:51 40.50154 -74.28966 3000 ft 186 kts 31°
2026-04-23 22:51 40.51195 -74.27963 3001 ft 188 kts 29°
2026-04-23 22:51 40.52319 -74.27148 2996 ft 184 kts 19°
2026-04-23 22:51 40.53503 -74.26434 3001 ft 185 kts 20°
2026-04-23 22:52 40.54653 -74.25716 2923 ft 185 kts 21°
2026-04-23 22:52 40.55830 -74.24979 2777 ft 187 kts 20°
2026-04-23 22:52 40.56995 -74.24246 2580 ft 183 kts 20°
2026-04-23 22:52 40.58127 -74.23530 2407 ft 180 kts 20°
2026-04-23 22:53 40.59248 -74.22819 2253 ft 169 kts 20°
2026-04-23 22:53 40.60237 -74.22186 2055 ft 151 kts 20°
2026-04-23 22:53 40.61149 -74.21606 1833 ft 138 kts 18°
2026-04-23 22:53 40.62000 -74.21069 1612 ft 135 kts 18°
2026-04-23 22:54 40.62845 -74.20536 1371 ft 132 kts 17°
2026-04-23 22:54 40.63669 -74.19997 1163 ft 135 kts 21°
2026-04-23 22:54 40.64510 -74.19456 954 ft 134 kts 19°
2026-04-23 22:54 40.65350 -74.18948 701 ft 130 kts 19°
2026-04-23 22:55 40.66169 -74.18421 472 ft 129 kts 19°
2026-04-23 22:55 40.66994 -74.17904 247 ft 130 kts 19°
2026-04-23 22:55 40.67784 -74.17396 67 ft 124 kts 18°
2026-04-23 22:55 40.68536 -74.16931 30 ft 107 kts 25°
2026-04-23 22:56 40.69050 -74.16592 30 ft 60 kts 29°
2026-04-23 22:56 40.69356 -74.16449 30 ft 22 kts
2026-04-23 22:56 40.69449 -74.16458 29 ft 7 kts 355°
2026-04-23 22:56 40.69497 -74.16464 30 ft 6 kts 355°
2026-04-23 22:57 40.69546 -74.16469 29 ft 8 kts 355°
2026-04-23 22:57 40.69604 -74.16490 29 ft 9 kts 316°
2026-04-23 22:57 40.69640 -74.16595 30 ft 14 kts 295°
2026-04-23 22:57 40.69679 -74.16707 29 ft 11 kts 294°
2026-04-23 22:58 40.69674 -74.16805 30 ft 12 kts 248°
2026-04-23 22:58 40.69639 -74.16920 29 ft 15 kts 249°
2026-04-23 22:58 40.69604 -74.17052 30 ft 14 kts 252°
2026-04-23 22:58 40.69648 -74.17136 29 ft 12 kts 338°
2026-04-23 22:59 40.69714 -74.17186 30 ft 11 kts 330°
2026-04-23 22:59 40.69731 -74.17245 29 ft 7 kts 228°
2026-04-23 22:59 40.69712 -74.17304 29 ft 7 kts 248°
2026-04-23 22:59 40.69683 -74.17356 30 ft 7 kts 219°
2026-04-23 23:00 40.69644 -74.17397 29 ft 7 kts 219°
2026-04-23 23:00 40.69606 -74.17426 29 ft 4 kts 172°
2026-04-23 23:00 40.69580 -74.17403 30 ft 4 kts 131°
2026-04-23 23:00 40.69572 -74.17391 29 ft 0 kts 129°